EW8616 Weather Reports


time (UTC)temp
C
wind
direction
speed
KPH
gust
KPH
rain 1hr
cm
rain 24hr
cm
rain mn
cm
humidity
%
barometer
mb
20260503211355 23 287 0.0 0.0 0.00 0.00 0.00 45 1008.5
20260503210827 23 297 0.0 0.0 0.00 0.00 0.00 44 1008.5
20260503210318 24 290 0.0 0.0 0.00 0.00 0.00 45 1008.6
20260503205831 24 313 0.0 4.8 0.00 0.00 0.00 46 1008.7
20260503205323 24 207 1.6 4.8 0.00 0.00 0.00 48 1008.7
20260503204835 24 284 0.0 4.8 0.00 0.00 0.00 46 1008.8
20260503204327 24 284 1.6 4.8 0.00 0.00 0.00 46 1008.8
20260503203824 23 233 1.6 4.8 0.00 0.00 0.00 47 1008.9
20260503203336 23 238 1.6 4.8 0.00 0.00 0.00 48 1009.0
20260503202829 23 281 1.6 4.8 0.00 0.00 0.00 47 1009.0
20260503202322 23 281 1.6 4.8 0.00 0.00 0.00 48 1009.1
20260503201837 24 279 1.6 4.8 0.00 0.00 0.00 47 1009.1
20260503201328 24 279 1.6 4.8 0.00 0.00 0.00 46 1009.1
20260503200821 24 241 0.0 4.8 0.00 0.00 0.00 46 1009.2
20260503200352 24 225 0.0 4.8 0.00 0.00 0.00 47 1009.3
20260503195844 24 260 3.2 4.8 0.00 0.00 0.00 47 1009.4
20260503195335 24 256 3.2 4.8 0.00 0.00 0.00 48 1009.4
20260503194827 24 251 0.0 0.0 0.00 0.00 0.00 49 1009.5
20260503194339 24 250 0.0 0.0 0.00 0.00 0.00 51 1009.5
20260503193830 24 49 0.0 0.0 0.00 0.00 0.00 50 1009.6
20260503193323 23 79 0.0 0.0 0.00 0.00 0.00 51 1009.6
20260503192855 23 80 0.0 0.0 0.00 0.00 0.00 52 1009.7
20260503192326 23 270 0.0 0.0 0.00 0.00 0.00 50 1009.8
20260503191819 23 267 0.0 0.0 0.00 0.00 0.00 52 1009.8
20260503191332 23 271 0.0 0.0 0.00 0.00 0.00 51 1009.9
20260503190824 23 13 0.0 0.0 0.00 0.00 0.00 53 1009.9
20260503190337 23 87 0.0 0.0 0.00 0.00 0.00 52 1009.9
20260503185830 23 300 0.0 0.0 0.00 0.00 0.00 52 1010.0
20260503185342 23 300 0.0 0.0 0.00 0.00 0.00 54 1010.0
20260503184833 23 300 0.0 0.0 0.00 0.00 0.00 52 1010.0
20260503184346 23 300 0.0 0.0 0.00 0.00 0.00 51 1010.1
20260503183817 23 300 0.0 0.0 0.00 0.00 0.00 52 1010.1
20260503183330 23 298 0.0 0.0 0.00 0.00 0.00 52 1010.1
20260503182823 23 298 0.0 0.0 0.00 0.00 0.00 54 1010.2
20260503182336 23 304 0.0 0.0 0.00 0.00 0.00 52 1010.2
20260503181830 23 331 0.0 0.0 0.00 0.00 0.00 53 1010.3
20260503181321 22 109 0.0 0.0 0.00 0.00 0.00 57 1010.3
20260503180853 22 109 0.0 0.0 0.00 0.00 0.00 52 1010.3
20260503180326 22 115 0.0 0.0 0.00 0.00 0.00 56 1010.3
20260503175858 22 248 0.0 0.0 0.00 0.00 0.00 57 1010.4
20260503175329 22 101 0.0 0.0 0.00 0.00 0.00 55 1010.4
20260503174826 21 63 0.0 0.0 0.00 0.00 0.00 57 1010.5
20260503174318 21 94 0.0 0.0 0.00 0.00 0.00 55 1010.5
20260503173829 21 28 0.0 0.0 0.00 0.00 0.00 55 1010.5
20260503173341 21 70 0.0 4.8 0.00 0.00 0.00 57 1010.5
20260503172831 21 31 0.0 8.0 0.00 0.00 0.00 57 1010.5
20260503172323 21 90 1.6 8.0 0.00 0.00 0.00 60 1010.6
20260503171831 21 86 0.0 4.8 0.00 0.00 0.00 58 1010.6
20260503171326 21 86 0.0 1.6 0.00 0.00 0.00 58 1010.6
20260503170819 21 88 0.0 6.4 0.00 0.00 0.00 59 1010.6
20260503170331 21 155 3.2 9.7 0.00 0.00 0.00 58 1010.6
20260503150829 18 133 0.0 0.0 0.00 0.00 0.00 74 1010.8
20260503150341 18 133 0.0 0.0 0.00 0.00 0.00 74 1010.9
20260503131333 -17 0.0 0.0 0.00 0.00 0.00 1010.6
20260503130824 -17 0.0 0.0 0.00 0.00 0.00 1010.6
20260503130358 -17 0.0 0.0 0.00 0.00 0.00 1010.6
20260503110826 -17 0.0 0.0 0.00 0.00 0.00 1010.8
20260503110319 -17 0.0 0.0 0.00 0.00 0.00 1010.8
20260503090322 13 55 0.0 0.0 0.00 0.00 0.00 76 1011.0
20260503081325 14 55 0.0 0.0 0.00 0.00 0.00 71 1011.1
20260503080817 15 55 0.0 0.0 0.00 0.00 0.00 71 1011.1
20260503080330 15 55 0.0 0.0 0.00 0.00 0.00 70 1011.2
20260503072855 16 55 0.0 0.0 0.00 0.00 0.00 63 1011.1
20260503072325 16 55 0.0 0.0 0.00 0.00 0.00 63 1011.1
20260503071837 16 55 0.0 0.0 0.00 0.00 0.00 62 1011.1
20260503071330 16 55 0.0 0.0 0.00 0.00 0.00 62 1011.0
20260503070821 17 55 0.0 0.0 0.00 0.00 0.00 63 1011.1
20260503070334 17 55 0.0 0.0 0.00 0.00 0.00 63 1011.1
20260503060328 18 277 0.0 0.0 0.00 0.00 0.00 52 1010.8
20260503054848 18 277 0.0 0.0 0.00 0.00 0.00 51 1010.8
20260503054318 18 277 0.0 0.0 0.00 0.00 0.00 51 1010.8
20260503053829 18 277 0.0 0.0 0.00 0.00 0.00 51 1010.8
20260503053322 18 351 0.0 1.6 0.00 0.00 0.00 51 1010.8
20260503052855 18 351 0.0 1.6 0.00 0.00 0.00 52 1010.7
20260503052326 18 348 0.0 1.6 0.00 0.00 0.00 52 1010.8
20260503051817 18 347 0.0 8.0 0.00 0.00 0.00 52 1010.8
20260503051330 18 238 0.0 4.8 0.00 0.00 0.00 53 1010.8
20260503050822 18 26 0.0 0.0 0.00 0.00 0.00 53 1010.8
20260503050334 18 28 0.0 0.0 0.00 0.00 0.00 54 1010.8
20260503045825 18 355 0.0 1.6 0.00 0.00 0.00 54 1010.7
20260503045338 18 355 0.0 3.2 0.00 0.00 0.00 55 1010.7
20260503044851 18 330 0.0 3.2 0.00 0.00 0.00 54 1010.6
20260503044322 18 330 0.0 3.2 0.00 0.00 0.00 56 1010.6
20260503043835 18 330 0.0 1.6 0.00 0.00 0.00 57 1010.6
20260503043346 18 322 0.0 0.0 0.00 0.00 0.00 58 1010.6
20260503042818 18 322 0.0 8.0 0.00 0.00 0.00 59 1010.5
20260503042330 18 322 1.6 8.0 0.00 0.00 0.00 59 1010.5
20260503041843 18 313 0.0 0.0 0.00 0.00 0.00 60 1010.4
20260503041334 18 313 0.0 0.0 0.00 0.00 0.00 61 1010.4
20260503040825 18 313 0.0 0.0 0.00 0.00 0.00 62 1010.3
20260503040317 18 313 0.0 0.0 0.00 0.00 0.00 62 1010.3
20260503035851 18 313 0.0 0.0 0.00 0.00 0.00 63 1010.2
20260503035322 17 313 0.0 0.0 0.00 0.00 0.00 64 1010.1
20260503034835 17 313 0.0 0.0 0.00 0.00 0.00 64 1010.0
20260503034328 17 313 0.0 1.6 0.00 0.00 0.00 65 1009.9
20260503033824 17 313 0.0 1.6 0.00 0.00 0.00 65 1009.8
20260503033336 18 313 0.0 0.0 0.00 0.00 0.00 65 1009.8
20260503032829 18 313 0.0 0.0 0.00 0.00 0.00 64 1009.8
20260503032320 18 313 0.0 0.0 0.00 0.00 0.00 65 1009.7
20260503031833 18 313 0.0 0.0 0.00 0.00 0.00 63 1009.7
20260503031326 18 313 0.0 0.0 0.00 0.00 0.00 64 1009.7
20260503030818 18 313 0.0 0.0 0.00 0.00 0.00 63 1009.6
20260503030350 18 313 0.0 0.0 0.00 0.00 0.00 63 1009.5
20260503025822 18 313 0.0 0.0 0.00 0.00 0.00 61 1009.4
20260503025335 19 344 0.0 0.0 0.00 0.00 0.00 61 1009.5
20260503024828 19 344 0.0 0.0 0.00 0.00 0.00 60 1009.5
20260503024341 19 258 0.0 0.0 0.00 0.00 0.00 59 1009.5
20260503023832 20 258 0.0 0.0 0.00 0.00 0.00 61 1009.4
20260503023324 20 258 0.0 0.0 0.00 0.00 0.00 58 1009.4
20260503022817 20 258 0.0 0.0 0.00 0.00 0.00 58 1009.4
20260503022330 20 258 0.0 3.2 0.00 0.00 0.00 58 1009.4
20260503021821 20 258 0.0 3.2 0.00 0.00 0.00 57 1009.4
20260503021355 20 258 1.6 3.2 0.00 0.00 0.00 57 1009.3
20260503020826 20 258 0.0 0.0 0.00 0.00 0.00 57 1009.3
20260503020319 20 258 0.0 1.6 0.00 0.00 0.00 56 1009.3
20260503015832 20 279 0.0 1.6 0.00 0.00 0.00 56 1009.3
20260503015323 21 279 0.0 0.0 0.00 0.00 0.00 55 1009.3
20260503014855 21 279 0.0 0.0 0.00 0.00 0.00 54 1009.3
20260503014326 21 279 0.0 0.0 0.00 0.00 0.00 53 1009.4
20260503013819 21 279 0.0 0.0 0.00 0.00 0.00 54 1009.3
20260503013352 21 340 0.0 3.2 0.00 0.00 0.00 53 1009.3
20260503012823 21 307 0.0 3.2 0.00 0.00 0.00 54 1009.3
20260503012355 21 315 1.6 3.2 0.00 0.00 0.00 54 1009.4
20260503011827 21 315 1.6 4.8 0.00 0.00 0.00 53 1009.4
20260503011339 21 258 0.0 1.6 0.00 0.00 0.00 54 1009.4
20260503010830 21 258 0.0 0.0 0.00 0.00 0.00 54 1009.5
20260503010342 21 258 0.0 0.0 0.00 0.00 0.00 52 1009.4
20260503005833 21 258 0.0 1.6 0.00 0.00 0.00 52 1009.5
20260503005325 21 258 0.0 3.2 0.00 0.00 0.00 53 1009.6
20260503004817 21 258 1.6 6.4 0.00 0.00 0.00 52 1009.6
20260503004350 21 257 1.6 3.2 0.00 0.00 0.00 53 1009.7
20260503003820 21 257 0.0 3.2 0.00 0.00 0.00 53 1009.7
20260503003333 21 257 1.6 3.2 0.00 0.00 0.00 53 1009.7
20260503002825 21 257 0.0 4.8 0.00 0.00 0.00 54 1009.7
20260503002321 21 257 1.6 4.8 0.00 0.00 0.00 53 1009.7
20260503001833 21 250 0.0 4.8 0.00 0.00 0.00 53 1009.7
20260503001345 21 264 0.0 0.0 0.00 0.00 0.00 54 1009.7
20260503000817 21 264 0.0 0.0 0.00 0.00 0.00 52 1009.7
20260503000330 21 264 0.0 0.0 0.00 0.00 0.00 53 1009.8
20260502235822 21 264 0.0 0.0 0.00 0.00 0.00 51 1009.7
20260502235334 21 264 0.0 4.8 0.00 0.00 0.00 52 1009.8
20260502234826 21 264 3.2 6.4 0.00 0.00 0.00 50 1009.8
20260502234319 21 261 1.6 6.4 0.00 0.00 0.00 50 1009.9
20260502233831 21 270 0.0 4.8 0.00 0.00 0.00 51 1010.0
20260502233324 21 269 3.2 4.8 0.00 0.00 0.00 53 1010.1
20260502232817 21 270 3.2 4.8 0.00 0.00 0.00 49 1010.2
20260502232330 21 261 1.6 4.8 0.00 0.00 0.00 54 1010.3
20260502231823 21 265 1.6 4.8 0.00 0.00 0.00 51 1010.3
20260502231355 21 265 0.0 4.8 0.00 0.00 0.00 52 1010.4
20260502230826 21 265 0.0 4.8 0.00 0.00 0.00 52 1010.4
20260502230319 21 265 0.0 0.0 0.00 0.00 0.00 55 1010.5
20260502225832 21 257 0.0 0.0 0.00 0.00 0.00 57 1010.6
20260502225325 21 257 0.0 0.0 0.00 0.00 0.00 57 1010.6
20260502224320 21 221 0.0 0.0 0.00 0.00 0.00 58 1010.7
20260502223832 21 221 0.0 0.0 0.00 0.00 0.00 57 1010.8
20260502223325 21 297 0.0 0.0 0.00 0.00 0.00 60 1010.9
20260502222838 21 297 0.0 0.0 0.00 0.00 0.00 59 1011.0
20260502222350 21 302 0.0 0.0 0.00 0.00 0.00 58 1011.1
20260502221841 21 302 0.0 0.0 0.00 0.00 0.00 58 1011.1
20260502221353 21 304 0.0 0.0 0.00 0.00 0.00 58 1011.2
20260502220824 21 261 0.0 0.0 0.00 0.00 0.00 58 1011.2
20260502220317 21 261 0.0 0.0 0.00 0.00 0.00 58 1011.2
20260502215829 21 262 0.0 4.8 0.00 0.00 0.00 57 1011.3
20260502215320 21 261 0.0 4.8 0.00 0.00 0.00 59 1011.3
20260502214833 21 273 0.0 4.8 0.00 0.00 0.00 58 1011.4
20260502214347 21 277 0.0 0.0 0.00 0.00 0.00 59 1011.4
20260502213817 21 268 0.0 0.0 0.00 0.00 0.00 59 1011.4
20260502213330 21 268 0.0 0.0 0.00 0.00 0.00 57 1011.5
20260502212822 21 268 0.0 1.6 0.00 0.00 0.00 57 1011.5
20260502212319 21 188 0.0 4.8 0.00 0.00 0.00 59 1011.6
20260502211832 21 223 0.0 4.8 0.00 0.00 0.00 60 1011.7